This is the latest recevied weather packets stored in our database for station/object SQ3MKP-13. If no packets are shown the sender has not sent any weather packets the latest 10 day(s).
| Time | Temp. | Humidity | Pressure | Rain* | Wind** | Luminosity | Snow |
|---|---|---|---|---|---|---|---|
| 1777800927 | 23.89° C | 33% | 1005.3 hPa | - | - | 678 W/m² | - |
| 1777800626 | 23.89° C | 34% | 1005.3 hPa | - | - | 667 W/m² | - |
| 1777800325 | 23.89° C | 34% | 1005.4 hPa | - | - | 661 W/m² | - |
| 1777800024 | 23.89° C | 35% | 1005.5 hPa | - | - | 649 W/m² | - |
| 1777799723 | 23.89° C | 35% | 1005.4 hPa | - | - | 651 W/m² | - |
| 1777799423 | 23.89° C | 33% | 1005.5 hPa | - | - | 638 W/m² | - |
| 1777799121 | 23.89° C | 34% | 1005.5 hPa | - | - | 611 W/m² | - |
| 1777798820 | 24.44° C | 33% | 1005.5 hPa | - | - | 624 W/m² | - |
| 1777798520 | 23.89° C | 34% | 1005.5 hPa | - | - | 620 W/m² | - |
| 1777798219 | 23.33° C | 34% | 1005.6 hPa | - | - | 610 W/m² | - |
| 1777797918 | 23.33° C | 34% | 1005.6 hPa | - | - | 593 W/m² | - |
| 1777797617 | 22.78° C | 37% | 1005.6 hPa | - | - | 604 W/m² | - |
| 1777797316 | 23.33° C | 36% | 1005.6 hPa | - | - | 597 W/m² | - |
| 1777797015 | 22.78° C | 37% | 1005.6 hPa | - | - | 588 W/m² | - |
| 1777796714 | 22.78° C | 37% | 1005.7 hPa | - | - | 583 W/m² | - |
| 1777796413 | 22.78° C | 38% | 1005.8 hPa | - | - | 577 W/m² | - |
| 1777796112 | 22.22° C | 38% | 1005.8 hPa | - | - | 548 W/m² | - |
| 1777795812 | 21.67° C | 39% | 1005.9 hPa | - | - | 511 W/m² | - |
| 1777795511 | 21.67° C | 39% | 1005.8 hPa | - | - | 494 W/m² | - |
| 1777795210 | 21.67° C | 40% | 1005.9 hPa | - | - | 498 W/m² | - |
| 1777794909 | 21.67° C | 42% | 1005.9 hPa | - | - | 518 W/m² | - |
| 1777794608 | 21.11° C | 43% | 1005.9 hPa | - | - | 505 W/m² | - |
| 1777794307 | 20.56° C | 43% | 1005.9 hPa | - | - | 468 W/m² | - |
| 1777794006 | 20° C | 44% | 1005.9 hPa | - | - | 448 W/m² | - |
| 1777793705 | 20.56° C | 44% | 1006 hPa | - | - | 398 W/m² | - |
* Rain since midnight (hover to see other rain measurements)
** Current wind speed in m/s (hover to see current wind gust speed)